WR7DW-3 Weather Reports


time (UTC)temp
C
wind
direction
speed
KPH
gust
KPH
rain 1hr
cm
rain 24hr
cm
rain mn
cm
humidity
%
barometer
mb
20260503045945 8 350 0.0 0.0 0.00 0.00 0.00 52 1007.6
20260503044445 8 4 0.0 0.0 0.00 0.00 0.00 51 1007.7
20260503042945 8 4 0.0 0.0 0.00 0.00 0.00 52 1007.7
20260503041446 8 354 0.0 0.0 0.00 0.00 0.00 51 1007.8
20260503035946 8 359 0.0 0.0 0.00 0.00 0.00 50 1007.7
20260503034446 8 354 0.0 0.0 0.00 0.00 0.00 51 1007.6
20260503032946 8 354 0.0 0.0 0.00 0.00 0.00 54 1007.7
20260503031446 8 334 0.0 0.0 0.00 0.00 0.00 56 1007.6
20260503025947 8 325 0.0 0.0 0.00 0.00 0.00 54 1007.5
20260503024446 8 335 0.0 0.0 0.00 0.00 0.00 54 1007.4
20260503022946 8 335 0.0 0.0 0.00 0.00 0.00 53 1007.5
20260503021446 8 325 0.0 0.0 0.00 0.00 0.00 53 1007.5
20260503015946 9 313 0.0 0.0 0.00 0.00 0.00 51 1007.4
20260503014446 9 308 0.0 0.0 0.00 0.00 0.00 51 1007.5
20260503012947 10 318 0.0 0.0 0.00 0.00 0.00 50 1007.7
20260503011446 8 309 0.0 0.0 0.00 0.00 0.00 52 1007.9
20260503005946 8 299 0.0 0.0 0.00 0.00 0.00 50 1007.9
20260503004446 8 309 0.0 0.0 0.00 0.00 0.00 51 1008.1
20260503002946 8 311 0.0 0.0 0.00 0.00 0.00 54 1008.1
20260503001446 8 318 0.0 0.0 0.00 0.00 0.00 54 1008.3
20260502235946 8 306 0.0 0.0 0.00 0.00 0.00 50 1008.2
20260502234446 10 289 0.0 0.0 0.00 0.00 0.00 47 1008.2
20260502232946 10 332 0.0 0.0 0.00 0.00 0.00 45 1008.5
20260502231446 9 343 0.0 0.0 0.00 0.00 0.00 44 1008.6
20260502225946 9 332 0.0 0.0 0.00 0.00 0.00 44 1008.7
20260502224446 9 308 0.0 0.0 0.00 0.00 0.00 46 1008.7
20260502222946 9 294 0.0 0.0 0.00 0.00 0.00 45 1008.7
20260502221446 10 305 0.0 0.0 0.00 0.00 0.00 42 1008.7
20260502215946 10 309 0.0 0.0 0.00 0.00 0.00 39 1008.8
20260502214446 11 314 0.0 0.0 0.00 0.00 0.00 38 1009.0
20260502212946 10 272 0.0 0.0 0.00 0.00 0.00 42 1009.0
20260502211446 11 291 0.0 0.0 0.00 0.00 0.00 37 1009.2
20260502205948 10 292 0.0 0.0 0.00 0.00 0.00 40 1009.3
20260502204446 10 216 0.0 0.0 0.00 0.00 0.00 46 1009.5
20260502202946 9 200 0.0 0.0 0.00 0.00 0.00 49 1009.6
20260502201446 8 320 0.0 0.0 0.00 0.00 0.00 52 1009.7
20260502194447 8 230 0.0 0.0 0.00 0.00 0.00 55 1009.8
20260502192946 8 269 0.0 0.0 0.00 0.00 0.00 55 1009.8
20260502191446 7 285 0.0 0.0 0.00 0.00 0.00 57 1010.0
20260502185946 8 291 0.0 0.0 0.00 0.00 0.00 60 1010.1
20260502184447 7 289 0.0 0.0 0.00 0.00 0.00 62 1010.3
20260502181447 6 289 0.0 0.0 0.00 0.00 0.00 64 1010.6
20260502162947 6 15 0.0 0.0 0.00 0.00 0.00 65 1011.0
20260502161447 5 249 0.0 0.0 0.00 0.00 0.00 67 1010.8
20260502151447 4 128 0.0 0.0 0.00 0.00 0.00 69 1010.8
20260502122947 2 200 0.0 0.0 0.00 0.00 0.00 73 1009.8
20260502121447 2 260 0.0 0.0 0.00 0.00 0.00 74 1009.8
20260502114447 2 354 0.0 0.0 0.00 0.00 0.00 73 1009.7
20260502112947 2 32 0.0 0.0 0.00 0.00 0.00 72 1009.8
20260502111447 2 305 0.0 0.0 0.00 0.00 0.00 71 1010.0
20260502105947 2 128 0.0 0.0 0.00 0.00 0.00 69 1010.0
20260502104447 3 164 0.0 0.0 0.00 0.00 0.00 68 1010.1
20260502102947 3 215 0.0 0.0 0.00 0.00 0.00 67 1009.9
20260502101448 3 80 0.0 0.0 0.00 0.00 0.00 65 1009.8
20260502091448 5 136 0.0 0.0 0.00 0.00 0.00 57 1009.5
20260502065948 7 42 0.0 0.0 0.00 0.00 0.00 51 1010.0
20260502062948 7 16 0.0 0.0 0.00 0.00 0.00 47 1009.9
20260502061448 7 16 0.0 0.0 0.00 0.00 0.00 48 1010.1
20260502055948 7 354 0.0 0.0 0.00 0.00 0.00 51 1010.2
20260502054448 7 354 0.0 0.0 0.00 0.00 0.00 48 1010.2
20260502052948 7 328 0.0 0.0 0.00 0.00 0.00 47 1010.1
20260502051448 7 14 0.0 0.0 0.00 0.00 0.00 47 1010.2